Home   Weather   Oberhausen   Past weeks

Flag for Germany Past Weather in Oberhausen, North Rhine-Westphalia, Germany — Yesterday and Last 2 Weeks

Now
46 °F

Clear.


Feels Like: 44 °F
Forecast: 36 / 53 °F
Wind: 5 mph from West

Location: Duesseldorf

Current Time: Apr 27, 2017 at 10:30:35 pm

Latest Report: Apr 27, 2017 at 9:50 pm


Visibility: 10 mi

Pressure: 30.01 "Hg

Humidity: 66%

Dew Point: 36 °F

Location of OberhausenLocation

Past Weather in Oberhausen — Graph

°F

Oberhausen Temperature Yesterday

Maximum temperature yesterday: 52 °F (at 3:50 pm)
Minimum temperature yesterday: 30 °F (at 5:20 am)
Average temperature yesterday: 41 °F

High & Low Weather Summary for the Past Weeks

 TemperatureHumidityPressure
High59 °F (Apr 21, 3:20 pm)100% (Apr 14, 5:50 am)30.63 "Hg (Apr 14, 5:50 am)
Low27 °F (Apr 20, 4:50 am)30% (Apr 20, 5:20 pm)29.71 "Hg (Apr 25, 12:50 am)
Average45 °F68%30.14 "Hg
* Reported Apr 12 8:20 pm — Apr 27 8:50 pm, Oberhausen, Weather by CustomWeather, © 2017

Note: Actual official high and low records may vary slightly from our data, if they occured in-between our weather recording intervals... More about our weather records

Advertising

Oberhausen Weather History for the Previous 24 Hours

Scroll right to see more
 ConditionsComfort  
Time TempWeatherWind HumidityBarometerVisibility
8:50 pm
Thu, Apr 27
46 °FClear.6 mph62%30.01 "Hg10 mi
8:20 pm46 °FSunny.7 mph62%29.98 "Hg10 mi
7:50 pm48 °FScattered clouds.12 mph54%29.98 "HgN/A
7:20 pm50 °FScattered clouds.6 mph54%29.98 "HgN/A
6:50 pm48 °FScattered showers. Scattered clouds.12 mph58%29.98 "HgN/A
6:20 pm48 °FScattered showers. Scattered clouds.14 mph58%29.98 "HgN/A
5:50 pm52 °FScattered showers. Scattered clouds.15 mph44%29.98 "HgN/A
5:20 pm52 °FScattered clouds.9 mph38%29.98 "HgN/A
4:50 pm54 °FPassing clouds.10 mph38%29.98 "HgN/A
4:20 pm54 °FScattered clouds.12 mph35%29.98 "HgN/A
3:50 pm54 °FScattered showers. Scattered clouds.7 mph41%29.98 "HgN/A
3:20 pm54 °FScattered showers. Scattered clouds.9 mph38%30.01 "HgN/A
2:50 pm52 °FPassing clouds.8 mph41%30.01 "HgN/A
2:20 pm52 °FPassing clouds.9 mph44%30.01 "HgN/A
1:50 pm50 °FPassing clouds.8 mph43%30.01 "HgN/A
1:20 pm52 °FScattered clouds.10 mph38%30.01 "HgN/A
12:50 pm48 °FPassing clouds.8 mph43%30.01 "HgN/A
12:20 pm50 °FScattered clouds.7 mph43%30.01 "HgN/A
11:50 am50 °FScattered clouds.7 mph47%30.04 "HgN/A
11:20 am46 °FScattered clouds.8 mph53%30.04 "HgN/A
10:50 am48 °FScattered clouds.7 mph54%30.04 "HgN/A
10:20 am46 °FScattered clouds.6 mph62%30.04 "HgN/A
9:50 am45 °FPassing clouds.3 mph71%30.01 "HgN/A
9:20 am45 °FPassing clouds.2 mph71%30.04 "HgN/A
8:50 am41 °FSunny.1 mph81%30.01 "Hg10 mi
8:20 am39 °FSunny.1 mph87%30.01 "Hg10 mi
7:50 am37 °FPassing clouds.No wind87%30.01 "HgN/A
7:20 am34 °FPassing clouds.1 mph93%30.01 "HgN/A
6:50 am32 °FFog.1 mph93%30.01 "HgN/A
6:20 am32 °FScattered clouds.1 mph93%30.01 "HgN/A
5:50 am30 °FPassing clouds.1 mph93%30.01 "HgN/A
5:20 am30 °FPassing clouds.2 mph93%29.98 "HgN/A
4:50 am30 °FClear.2 mph93%29.98 "Hg10 mi
3:50 am32 °FClear.1 mph93%29.98 "Hg10 mi
3:20 am34 °FFog.2 mph93%29.98 "HgN/A
2:50 am32 °FPassing clouds.3 mph100%29.98 "HgN/A
2:20 am34 °FFog.1 mph93%29.98 "HgN/A
1:50 am36 °FClear.1 mph87%29.98 "Hg10 mi
12:50 am37 °FClear.2 mph87%29.98 "Hg10 mi
12:20 am37 °FClear.1 mph87%29.98 "Hg10 mi
11:50 pm
Wed, Apr 26
37 °FClear.2 mph87%29.98 "Hg10 mi
11:20 pm39 °FClear.3 mph81%29.98 "Hg10 mi
10:50 pm41 °FPassing clouds.5 mph76%29.98 "HgN/A
10:20 pm41 °FClear.6 mph76%29.95 "Hg10 mi
Weather by CustomWeather, © 2017

See weather overviewHow to use our weather pages